Flag for Canada Weather past 2 weeks in Labrador City, Newfoundland and Labrador, Canada

Now
57 °F

Passing clouds.


Feels Like: 56 °F
Forecast: 49 / 60 °F
Wind: 7 mph from South

Location: Wabush Lake

Current Time: Aug 29, 2014 at 9:27:57 PM

Latest Report: Aug 29, 2014 at 9:00 PM


Visibility: 15 mi

Pressure: 30.00 "Hg

Humidity: 55%

Dew point: 41 °F

Location of Labrador CityLocation

Historic Weather in Labrador City — Graph

°F

Labrador City temperature yesterday

Maximum temperature yesterday: 57 °F (at 4:00 PM)
Minimum temperature yesterday: 36 °F (at 3:00 AM)
Average temperature yesterday: 47 °F

Past Weeks' High & Low Weather Summary

 TemperatureHumidityPressure
High81 °F (Aug 24, 3:00 PM)100% (Aug 17, 2:00 AM)30.34 "Hg (Aug 17, 2:00 AM)
Low30 °F (Aug 29, 4:00 AM)30% (Aug 29, 4:00 PM)29.56 "Hg (Aug 26, 10:00 PM)
Average58 °F76%30.01 "Hg
* Reported Aug 14 8:00 PM — Aug 29 8:00 PM, Labrador City, Weather by CustomWeather, © 2014

Note: Actual official high and low records may vary slightly from our data, if they occured in-between our weather recording intervals... More about our weather records

Advertising

Labrador City weather history for previous 24 hours

 ConditionsComfort  
Time TempWeatherWind HumidityBarometerVisibility
8:00 PM
Aug 29
63 °FScattered clouds.5 mph45%30.00 "Hg15 mi
7:00 PM66 °FPassing clouds.10 mph35%30.00 "Hg15 mi
6:00 PM66 °FScattered clouds.15 mph30%30.02 "Hg15 mi
4:00 PM66 °FScattered clouds.12 mph30%30.05 "Hg15 mi
3:00 PM66 °FPassing clouds.12 mph32%30.06 "Hg15 mi
2:00 PM64 °FPassing clouds.14 mph34%30.09 "Hg15 mi
1:00 PM63 °FPassing clouds.9 mph39%30.10 "Hg15 mi
12:00 PM59 °FPassing clouds.3 mph42%30.11 "Hg15 mi
11:00 AM57 °FSunny.7 mph44%30.13 "Hg15 mi
10:00 AM52 °FSunny.5 mph62%30.14 "Hg15 mi
9:00 AM45 °FClear.5 mph93%30.15 "Hg15 mi
8:00 AM37 °FLight fog.6 mph100%30.15 "Hg15 mi
7:00 AM32 °FLight fog.7 mph100%30.13 "Hg15 mi
6:00 AM32 °FClear.6 mph100%30.13 "Hg15 mi
5:00 AM32 °FClear.5 mph100%30.11 "Hg15 mi
4:00 AM30 °FClear.3 mph100%30.11 "Hg15 mi
3:00 AM32 °FClear.5 mph93%30.11 "Hg15 mi
2:00 AM32 °FClear.2 mph93%30.10 "Hg15 mi
1:00 AM34 °FClear.2 mph93%30.09 "Hg15 mi
12:00 AM37 °FClear.No wind87%30.09 "Hg15 mi
11:00 PM
Aug 28
41 °FClear.2 mph76%30.08 "Hg15 mi
10:00 PM43 °FSunny.3 mph71%30.07 "Hg15 mi
9:00 PM46 °FSunny.3 mph57%30.06 "Hg15 mi
Weather by CustomWeather, © 2014

See weather overviewHow to use our weather pages